Miscellaneous Local Product
Issued by NWS North Platte, NE

Home | Current Version | Previous Version | Text Only | Print | Product List | Glossary On
Versions: 1 2 3 4 5 6 7 8 9 10 11 12 13 14 15 16 17 18 19 20 21 22 23 24 25 26 27 28 29 30 31 32 33 34 35 36 37 38 39 40 41 42 43 44 45 46 47 48 49 50
000
AXUS43 KLBF 261610
MISLBF


WESTERN AND NORTH CENTRAL NEBRASKA HOURLY WEATHER ROUNDUP
NATIONAL WEATHER SERVICE NORTH PLATTE NE
1100 AM CDT MON JUN 26 2017

NOTE: "FAIR" INDICATES FEW OR NO CLOUDS BELOW 12,000 FEET WITH NO
SIGNIFICANT WEATHER AND/OR OBSTRUCTIONS TO VISIBILITY.

NOTE: STATIONS NOT REPORTING VARIABLES SUCH AS SKY/WEATHER OR
PRESSURE ARE PROVIDED BY RAWS AND APRS NETWORKS AND ARE NOT UNDER
NATIONAL WEATHER SERVICE QUALITY CONTROL.

...OBSERVATIONS IN AND NEAR THE EASTERN PANHANDLE OF NEBRASKA...

CITY           SKY/WX    TMP DP  RH WIND       PRES   REMARKS
PINE RIDGE     SUNNY     70  42  36 SE9       30.25F
GORDON         FAIR      67  41  38 E12       30.26S
CHADRON        SUNNY     70  40  33 E9G18     30.24F
ALLIANCE       SUNNY     70  43  37 E12       30.24S
SIDNEY         SUNNY     75  56  51 VRB6      30.24F
CRESCENT LAKE    N/A     70  51  50 NE9         N/A
$$

...OBSERVATIONS IN NORTHERN NEBRASKA AND FAR SOUTHERN SOUTH DAKOTA...

CITY           SKY/WX    TMP DP  RH WIND       PRES   REMARKS
WINNER         FAIR      71  45  39 NE14      30.24F
VALENTINE      SUNNY     71  38  29 NE13      30.23F
THEDFORD       SUNNY     71  41  33 E18       30.24S
AINSWORTH      SUNNY     67  46  45 E12       30.24S
O`NEILL        SUNNY     68  47  46 NE12G18   30.23S
ORD            SUNNY     73  49  42 NE12      30.18S
BROKEN BOW     PTSUNNY   71  55  56 N7        30.19S
VALENTINE NWR    N/A     65  44  47 E13         N/A
HALSEY           N/A     70  40  33 NE8G16      N/A
BUTTE            N/A     64  47  55 NE10G20     N/A
CHAMBERS         N/A     72  47  41 CALM        N/A
EWING            N/A     69  52  54 NE5G17      N/A
$$

...OBSERVATIONS IN SOUTHWEST NEBRASKA AND FAR NORTHEAST COLORADO...

CITY           SKY/WX    TMP DP  RH WIND       PRES   REMARKS
WRAY           FAIR      75  59  57 CALM      30.22S
IMPERIAL       SUNNY     71  57  61 N7        30.21F
OGALLALA       MOSUNNY   74  57  55 NE10      30.21S
NORTH PLATTE   CLOUDY    66  61  84 N6        30.20F
MCCOOK         PTSUNNY   71  59  65 CALM      30.19F
LEXINGTON      MOSUNNY   69  60  72 SW3       30.19F
STAPLETON        N/A     65  59  80 CALM        N/A
GOTHENBURG       N/A     64  58  80 CALM        N/A
CALLAWAY         N/A     64  60  88 SW3         N/A
$$

...OBSERVATIONS IN CENTRAL LINCOLN COUNTY AREA...

CITY           SKY/WX    TMP DP  RH WIND       PRES   REMARKS
N.P. AIRPORT   CLOUDY    66  61  84 N6        30.20F
N.P. DOWNTOWN    N/A     66  60  82 E3          N/A
N.P. SOUTHEAST   N/A     65  59  80 N3          N/A
N.P. HILLCREST   N/A     66  61  83 NE3         N/A
$$

...SOME OBSERVATIONS FROM AROUND THE REGION...

CITY           SKY/WX    TMP DP  RH WIND       PRES   REMARKS
DENVER         MOSUNNY   71  52  50 VRB6      30.27F
LIMON          SUNNY     74  55  51 S12       30.27F
ASPEN          SUNNY     68  33  27 NE7       30.39F
LARAMIE        SUNNY     67  37  33 S5        30.37F
CASPER         SUNNY     70  39  32 SE7       30.25F
CHEYENNE       SUNNY     71  45  39 NE7       30.31F
SCOTTSBLUFF    SUNNY     71  50  47 NE3       30.24F
GRAND ISLAND   PTSUNNY   70  61  73 NW10      30.18F
OMAHA          MOSUNNY   65  56  72 S7        30.19S
SIOUX FALLS    MOSUNNY   65  48  54 N7        30.23F
PIERRE         SUNNY     65  44  46 VRB6      30.25S
RAPID CITY     SUNNY     69  39  33 SE12      30.24F
BISMARCK       SUNNY     66  46  48 VRB3      30.26F
KANSAS CITY    TSTM      58  55  90 N12       30.29R FOG
HILL CITY      MOSUNNY   69  62  78 W8        30.20F
WICHITA        MOSUNNY   76  60  57 S12       30.18F
DODGE CITY     PTSUNNY   71  60  68 SW8       30.21F
OKLAHOMA CITY  CLOUDY    79  59  50 S10       30.20F
DALLAS         CLOUDY    78  68  71 VRB5      30.15F
AMARILLO       SUNNY     75  56  51 SW13      30.26F
$$




USA.gov is the U.S. government's official web portal to all federal, state and local government web resources and services.